Location: Mococo
(38.0255°N, 122.1161°W)
Time: 06:55:58
(UTC+00:00)

FengYun 1-2 T - Pass Details

Date: 13 February 2026
Orbit: 844 x 880 km, 98.8° (Epoch: 9 March)

Event Time Altitude Azimuth Distance (km) Brightness Sun altitude
Rises 13:12:19 0° 8° (N) 3,412 7.5 -21.9°
Reaches altitude 10° 13:14:44 10° 4° (N) 2,472 6.7 -21.4°
Maximum altitude 13:20:03 55° 288° (WNW) 1,014 4.2 -20.4°
Enters shadow 13:25:21 10° 212° (SSW) 2,460 6.3 -19.3°
